GFSMW_925_spd_072.txt.gz
Wind_Speed
11 17 17 14 14 12 21 21 18 16 18 22 23 24 25 30 35 36 36 38 30 32 25 25 22 20 21 19 21 20 17 17 16 14 18 15 14 16 19 21 20 21 23
14 14 17 17 16 16 20 23 19 19 20 21 23 20 25 27 36 40 32 32 33 32 28 28 29 26 20 21 18 20 16 14 17 14 16 3 7 18 19 21 25 25 24
16 15 14 17 18 17 20 24 23 23 24 22 23 23 23 24 27 31 33 32 29 31 26 26 32 30 26 27 23 22 21 19 19 20 8 3 4 9 17 28 25 26 26
16 16 15 17 20 20 20 21 23 25 24 23 23 27 21 24 28 37 32 34 30 29 29 27 31 34 29 26 26 24 25 25 24 22 19 16 6 3 2 16 28 23 27
17 16 16 19 21 22 22 23 22 23 22 22 25 27 25 27 28 31 28 26 24 30 29 29 30 33 29 24 24 24 27 28 21 16 15 17 20 20 12 4 13 24 24
16 15 19 21 22 24 22 22 23 24 25 24 26 28 28 29 29 31 29 27 29 29 32 29 32 32 31 25 24 23 31 23 17 18 22 22 12 15 13 5 8 16 22
15 15 17 16 22 26 24 23 24 23 23 28 26 27 25 29 32 37 35 29 28 28 31 35 29 35 32 28 28 30 22 21 21 22 21 29 23 22 20 15 12 11 16
13 16 17 16 21 27 28 26 26 24 27 26 28 28 28 28 28 34 37 36 31 32 31 33 35 34 33 34 31 25 24 24 26 28 26 33 30 27 26 25 18 4 11
15 16 16 16 22 26 28 30 29 28 28 29 26 27 29 30 28 29 32 36 33 30 30 30 33 36 39 40 34 31 31 28 33 36 32 36 35 32 29 28 28 19 7
14 14 15 14 22 26 26 28 29 30 32 33 31 29 28 29 28 29 32 30 33 32 33 38 37 39 41 41 39 37 36 32 37 35 37 38 34 35 34 32 33 31 22
6 14 13 19 21 23 25 26 26 26 30 35 32 33 32 30 31 32 33 37 30 32 34 37 39 39 40 39 37 36 35 37 36 35 36 35 33 34 34 34 32 30 28
3 11 12 13 20 21 24 27 27 26 26 31 32 32 33 34 34 34 34 34 36 34 34 34 36 39 39 38 40 39 37 38 38 39 38 37 36 35 34 32 34 30 32
7 8 9 10 13 19 22 23 25 25 25 26 30 32 34 35 36 37 36 35 36 38 38 39 40 39 39 38 41 42 42 41 41 40 39 39 37 37 35 34 32 34 34
4 3 8 9 10 19 21 23 24 27 27 27 29 31 33 37 37 35 36 37 36 37 38 39 41 40 42 42 42 42 43 43 43 43 43 42 41 39 37 34 35 33 30
15 9 8 1 10 14 19 23 25 28 28 27 29 31 32 32 33 35 37 37 40 38 39 38 41 41 42 42 43 43 43 41 42 44 44 44 45 44 42 38 34 30 30
16 14 14 14 11 2 17 23 25 27 29 30 31 27 29 31 34 35 36 38 39 40 39 41 42 40 43 45 48 47 41 40 39 40 41 43 43 44 45 43 44 43 38
14 14 15 15 16 20 19 17 17 25 29 30 29 29 29 31 33 33 33 37 39 38 42 43 40 42 44 45 47 47 47 40 37 38 37 38 40 42 41 43 44 47 44
11 12 11 13 22 27 29 27 25 19 24 27 27 29 29 29 28 30 34 35 34 36 37 38 39 37 40 40 42 45 44 44 40 40 39 37 32 33 35 35 29 18 10
8 9 16 19 20 23 25 24 21 23 20 11 17 25 28 29 30 31 35 34 30 31 33 32 33 34 36 35 38 37 39 39 34 34 34 33 31 29 32 28 17 18 19
15 13 17 18 21 24 24 22 24 25 27 28 26 30 19 28 28 31 32 31 31 32 29 28 27 27 28 32 34 34 34 29 23 18 15 10 10 11 14 16 23 25 21
20 20 21 20 23 25 23 21 21 23 23 22 23 27 27 24 15 21 26 29 28 27 19 17 11 9 9 11 13 14 19 21 16 12 12 12 12 16 18 21 25 27 22
23 25 19 20 23 24 22 20 21 19 18 19 24 26 27 27 24 13 9 8 15 18 17 16 11 6 4 1 3 7 11 16 19 25 27 26 23 22 23 26 28 26 22
20 22 21 20 23 24 22 20 23 19 16 22 25 26 27 28 27 28 18 11 7 9 14 16 17 17 16 15 10 16 19 25 31 27 33 36 35 33 29 27 24 21 19
20 21 20 20 21 24 24 23 23 20 14 16 21 23 30 33 38 33 29 21 14 13 15 13 15 19 22 24 19 26 38 38 35 29 31 29 32 30 24 20 20 20 17
19 19 19 19 21 23 24 25 25 19 15 15 16 20 24 28 31 39 40 30 24 13 23 22 22 16 22 19 22 27 30 34 32 30 27 23 20 25 22 20 20 18 17
16 17 18 19 21 22 24 26 25 20 13 13 17 18 19 21 24 30 37 43 38 34 38 38 38 35 31 33 31 33 29 27 26 21 19 19 18 16 18 18 18 17 14

GFSMW_925_spd_075.txt.gz
Wind_Speed
10 25 27 31 25 22 20 20 20 20 18 19 21 25 24 27 35 41 42 42 40 39 39 38 39 34 37 33 37 33 29 30 30 25 22 19 19 19 21 18 23 25 25
15 16 24 25 27 24 23 23 22 23 24 22 20 18 25 23 31 35 43 45 39 38 35 32 35 25 32 30 35 31 28 28 28 19 15 2 5 17 23 23 24 23 22
20 17 17 24 28 25 25 24 24 24 26 24 22 21 22 23 21 27 33 37 42 36 30 37 33 30 33 29 33 32 27 28 23 23 11 3 4 5 17 24 25 27 27
18 17 15 19 25 25 25 25 25 25 24 27 25 26 20 21 23 27 29 32 36 33 30 32 33 40 41 40 32 29 28 28 28 21 18 10 7 3 1 11 26 26 29
22 20 19 25 27 29 26 27 28 28 26 25 27 27 20 24 26 27 27 29 33 33 30 31 32 31 31 32 31 29 30 29 27 20 20 18 13 9 4 3 6 20 31
19 18 20 26 27 30 25 26 27 26 27 27 29 29 27 23 25 27 27 27 30 29 33 30 30 32 32 32 32 31 29 29 26 22 23 18 9 8 6 3 7 12 21
18 18 19 17 25 29 27 27 28 27 27 27 29 29 29 32 30 31 31 28 29 25 34 34 34 35 37 35 34 35 33 30 24 21 28 28 28 20 18 15 11 11 17
18 20 20 18 26 29 29 27 28 28 29 30 29 29 28 31 31 34 34 31 31 34 35 34 30 34 33 37 32 34 32 32 27 23 36 38 30 26 24 22 17 4 9
17 20 18 19 27 29 29 31 28 26 28 30 30 29 27 30 29 33 33 31 29 28 31 34 34 32 32 33 36 35 32 28 29 34 39 36 33 30 28 30 31 20 8
16 17 17 15 26 30 30 30 31 29 27 29 29 30 30 31 27 31 37 36 35 30 29 30 33 36 38 37 37 36 34 34 34 38 38 38 37 35 32 35 37 36 27
14 16 16 21 27 30 30 31 30 29 30 33 29 28 29 32 32 31 35 37 37 38 36 39 38 38 40 39 42 39 40 40 40 40 39 38 37 35 38 41 39 35 32
10 12 16 15 22 26 28 30 29 30 31 34 34 35 33 30 32 31 35 38 36 38 40 41 41 40 40 41 44 42 38 39 39 40 39 42 41 41 41 40 38 36 37
6 9 12 13 13 22 26 28 30 29 28 35 34 34 35 36 33 32 33 37 40 38 40 40 41 42 42 42 43 43 41 41 42 41 40 41 40 42 40 40 37 37 35
19 9 7 6 14 22 26 27 29 33 34 31 33 33 35 35 37 35 34 36 37 39 39 40 39 42 43 43 43 43 44 45 45 43 43 45 42 43 41 40 39 37 33
17 17 14 13 14 3 15 26 31 33 36 32 32 34 34 35 35 37 35 34 35 38 39 38 40 40 41 41 43 43 43 42 43 42 44 45 46 47 47 40 38 35 34
15 16 17 17 15 20 19 18 7 24 34 32 32 30 32 35 36 35 35 37 38 37 36 38 39 39 42 44 46 44 39 40 41 42 43 44 46 49 52 51 49 45 40
12 15 15 15 19 22 19 19 21 22 12 26 29 31 34 35 35 36 37 38 37 36 40 39 36 38 40 43 45 46 47 39 41 41 39 38 42 46 48 48 48 50 46
13 14 13 19 24 25 29 23 26 26 25 24 13 9 14 28 31 34 36 36 35 37 38 38 39 38 40 38 40 42 46 47 43 41 43 44 43 44 43 41 36 34 33
15 16 23 25 28 31 28 23 24 24 24 23 21 23 19 18 21 28 33 37 34 34 36 33 34 39 42 39 42 41 45 46 44 41 42 43 42 40 35 34 29 19 13
23 21 24 25 28 31 27 24 25 23 23 22 20 18 20 23 13 9 13 23 30 32 30 29 32 35 36 36 37 39 40 38 38 35 31 29 31 28 28 33 31 26 24
26 23 26 25 25 27 24 23 25 27 24 20 15 17 21 18 20 15 13 17 9 21 23 20 12 11 10 15 21 28 32 36 29 20 12 8 9 15 19 21 24 28 27
24 24 21 22 24 26 25 23 24 26 24 21 20 21 21 19 20 20 23 21 20 14 14 10 12 10 11 10 6 5 11 13 16 20 22 23 23 22 22 26 31 27 30
21 21 19 19 23 24 25 22 24 23 22 22 22 22 22 23 25 25 24 26 25 22 21 20 20 21 21 26 25 26 29 30 37 35 36 38 36 34 38 31 31 28 27
18 18 18 19 20 21 20 21 22 19 19 20 21 23 24 29 30 28 27 24 22 21 20 19 19 20 21 21 22 25 33 36 38 39 38 39 35 33 34 33 28 26 25
16 18 18 18 19 19 21 23 22 17 16 17 18 19 20 23 30 38 31 28 28 19 26 25 25 21 23 21 21 26 32 35 35 32 31 26 25 22 27 28 26 24 23
16 18 19 19 20 20 21 23 22 19 17 17 18 19 17 18 21 26 34 42 40 39 36 34 35 33 31 29 24 21 24 25 24 26 25 21 20 21 22 21 21 21 22

GFSMW_925_spd_078.txt.gz
Wind_Speed
9 20 23 29 29 25 22 18 17 13 13 17 21 20 21 27 34 36 40 44 42 41 41 41 38 41 44 42 35 33 33 32 28 23 21 21 24 23 23 22 22 24 23
13 13 20 23 24 25 25 21 19 17 16 18 18 17 22 24 31 36 37 39 41 41 38 38 39 39 39 39 34 35 30 28 31 17 16 3 7 20 24 24 23 24 25
18 15 16 22 22 24 28 24 23 22 18 19 18 18 21 19 20 29 31 35 37 36 33 32 38 36 40 37 35 37 33 25 33 29 13 3 4 4 14 26 25 27 28
18 18 17 19 24 25 30 27 25 23 20 21 19 23 15 15 14 26 29 30 33 34 32 32 33 30 33 33 32 36 33 30 28 28 21 14 14 3 1 13 26 26 28
21 20 20 23 23 29 29 29 28 26 24 23 23 22 18 16 20 22 25 29 33 33 32 29 30 34 26 32 27 30 29 31 34 27 20 16 14 9 4 2 7 25 30
20 16 17 23 22 27 28 28 28 27 26 28 24 23 22 22 22 22 23 26 29 31 28 25 33 35 35 33 27 32 37 33 34 32 31 19 12 8 5 2 6 10 15
19 18 19 16 23 26 27 27 27 27 28 27 28 28 27 25 27 25 24 24 25 28 32 26 31 33 34 37 41 44 40 34 33 33 29 28 22 15 14 11 7 9 9
19 20 20 18 25 27 27 27 27 25 27 27 29 29 27 27 26 30 27 28 29 32 36 34 30 34 36 39 43 41 35 34 33 33 32 30 24 21 20 21 16 3 7
18 19 17 18 25 29 31 31 27 25 27 27 29 28 28 27 30 29 32 33 30 28 30 32 36 36 34 34 33 34 34 35 36 36 37 34 27 25 32 35 32 16 5
17 15 16 15 25 28 29 31 31 28 28 28 29 28 27 29 32 33 33 33 36 35 37 34 35 34 35 36 35 37 37 38 39 39 37 36 35 33 36 39 38 34 25
16 16 15 19 24 25 27 29 30 29 28 29 28 28 27 29 29 32 35 36 35 36 36 40 39 38 37 38 39 39 41 41 41 42 41 44 41 39 42 45 42 35 32
14 14 15 16 21 24 25 28 29 30 31 34 31 30 29 29 31 28 31 36 37 38 39 40 38 36 38 41 42 41 36 39 38 41 42 46 43 43 43 39 38 37 37
8 7 10 13 14 22 24 26 29 32 32 33 34 33 32 31 30 30 29 32 36 38 37 38 38 39 38 39 42 43 41 42 45 41 40 43 39 40 38 37 36 37 36
17 15 11 6 7 5 5 11 16 24 29 31 31 32 33 32 31 32 30 32 35 35 37 38 38 40 38 39 40 42 43 42 41 41 45 44 42 45 42 39 40 39 34
19 16 14 13 13 18 15 5 12 18 21 24 27 32 35 36 36 35 34 34 32 36 36 35 37 38 40 41 40 39 38 39 40 40 43 45 46 49 49 43 42 37 33
18 17 16 16 15 17 18 19 17 6 22 22 22 18 20 23 29 33 36 36 35 33 33 37 37 38 40 42 44 42 38 38 38 40 41 43 43 50 53 55 55 46 37
16 16 16 14 18 20 20 22 21 22 13 4 1 4 18 26 29 32 32 33 35 35 37 37 38 39 42 43 44 43 45 39 40 40 39 39 42 44 48 52 55 55 55
16 15 12 18 20 19 24 22 24 25 24 22 19 16 12 7 5 24 29 31 32 35 36 37 38 38 41 42 43 45 46 46 45 43 43 43 45 44 47 47 45 48 52
13 15 20 18 21 23 23 24 26 24 24 23 20 18 16 16 12 8 5 12 27 30 33 33 32 35 40 33 40 42 48 45 45 45 44 43 42 44 45 44 45 36 24
19 18 18 20 22 22 23 26 25 24 24 21 19 18 17 16 15 14 12 11 13 13 21 11 10 6 11 13 25 33 36 34 37 37 40 41 42 41 41 40 42 28 21
20 20 24 24 24 24 22 22 21 22 19 17 18 21 20 17 18 16 15 13 9 5 9 12 12 11 11 10 13 14 17 22 22 18 11 9 12 15 18 22 19 22 28
22 22 19 21 23 24 20 19 21 17 17 21 24 26 26 23 25 23 21 19 14 15 17 18 21 20 21 24 21 16 12 8 19 25 26 28 31 30 28 31 34 32 28
16 17 17 18 22 23 23 19 18 15 15 23 23 24 27 28 27 29 28 25 21 16 16 17 17 17 19 23 30 31 34 35 37 31 32 32 37 38 35 32 31 29 27
15 16 18 20 21 22 22 19 17 14 15 18 19 21 26 29 30 28 28 25 22 18 16 15 15 15 17 20 24 29 29 39 38 36 36 34 36 35 33 30 27 28 27
18 18 18 19 20 19 21 21 19 14 14 17 17 18 20 22 27 35 31 28 33 24 19 19 19 18 20 20 19 21 24 28 28 27 30 27 29 30 29 28 24 24 23
16 17 19 19 20 21 22 22 20 18 15 16 16 17 18 19 20 21 28 38 38 38 35 30 28 31 27 25 25 24 24 24 24 29 24 22 23 22 21 21 21 22 20

GFSMW_925_spd_084.txt.gz
Wind_Speed
12 15 21 26 27 30 30 28 23 20 21 23 21 20 23 27 29 32 31 37 44 34 40 37 38 41 41 40 42 39 32 28 31 28 14 13 15 19 22 21 21 22 21
6 6 16 23 29 27 27 26 21 21 21 21 20 16 16 22 27 30 30 33 36 43 39 37 39 41 36 38 38 38 30 24 34 16 14 3 2 14 22 22 24 23 23
11 9 13 21 25 25 28 25 23 21 23 19 19 12 18 10 21 26 33 34 35 39 33 37 38 38 38 40 38 38 34 25 32 27 9 3 3 5 12 22 25 26 27
8 10 14 16 25 25 27 25 22 20 21 21 20 18 10 9 4 16 27 33 36 34 31 33 36 36 32 32 37 36 32 33 28 27 7 12 13 3 2 12 28 29 30
11 14 16 15 21 23 25 23 23 21 20 20 18 16 14 12 15 23 28 32 33 34 29 29 30 33 34 34 39 36 33 34 34 25 20 13 11 10 3 3 9 26 33
9 9 11 20 19 20 22 24 24 22 21 20 18 18 16 16 18 20 24 28 30 32 30 29 28 26 30 30 34 37 37 32 33 36 30 23 11 8 5 2 4 14 18
9 12 15 16 21 24 24 24 25 22 23 22 19 16 17 17 18 22 20 26 28 28 29 30 30 28 25 30 32 37 38 34 33 32 32 33 30 21 21 8 3 6 12
11 12 15 16 21 25 25 24 25 23 24 23 21 18 14 16 19 21 23 22 27 30 33 34 32 31 31 27 31 34 37 31 31 33 30 32 30 31 29 24 11 2 6
9 13 13 15 22 26 27 24 25 23 24 22 21 19 18 16 16 19 21 25 27 28 33 34 33 31 32 36 31 33 38 33 31 26 23 24 31 34 35 31 27 18 4
9 12 14 16 22 23 24 21 24 25 21 22 22 18 18 17 16 17 19 20 23 24 25 28 30 31 32 36 41 37 37 38 37 35 28 28 30 33 37 35 28 24 23
7 9 9 14 22 21 20 19 22 23 22 19 21 17 17 17 18 20 20 19 19 20 22 24 29 32 32 32 37 35 32 35 33 32 34 35 39 36 35 40 41 33 32
6 9 9 9 16 18 17 18 20 22 21 21 19 19 19 17 18 18 19 19 21 21 23 23 26 29 32 28 28 30 30 33 34 36 32 35 36 40 39 37 35 34 34
10 10 11 11 12 15 14 14 19 19 19 20 20 17 16 19 20 18 17 17 18 19 22 23 25 27 29 31 30 30 31 33 35 36 35 40 36 37 34 36 36 35 35
10 10 10 11 11 13 12 13 15 17 18 19 19 20 20 17 16 15 16 17 18 21 23 25 27 27 28 29 30 32 33 34 36 38 39 39 38 38 35 34 34 36 30
16 14 12 12 12 14 10 9 9 13 16 17 18 20 20 21 19 18 18 17 17 18 18 21 24 26 28 30 31 32 34 37 37 39 40 42 43 45 43 35 35 32 30
15 16 16 16 13 16 16 16 11 4 13 14 15 13 16 17 18 19 20 21 22 22 22 23 23 24 26 27 29 32 33 34 35 37 39 43 44 47 48 50 51 48 37
15 16 15 13 17 17 18 20 16 20 21 20 15 13 6 8 12 16 19 21 23 26 28 28 28 28 29 26 29 32 34 34 34 35 36 35 35 39 44 48 49 50 52
13 14 13 16 18 19 23 21 19 23 23 21 16 15 12 10 8 6 4 5 11 17 23 25 28 28 15 22 27 31 35 37 37 36 37 35 36 37 37 39 39 40 42
11 15 19 20 21 23 22 20 23 24 23 20 18 17 15 13 13 12 10 8 6 5 6 4 2 4 2 6 14 23 24 29 32 23 16 19 24 26 29 31 28 22 12
15 18 20 23 23 19 21 25 22 24 23 19 16 16 17 17 17 16 15 13 11 11 13 18 19 17 14 15 10 8 6 8 8 4 6 13 14 15 18 19 17 7 10
15 18 22 20 19 20 21 23 22 23 18 19 20 23 20 20 18 20 20 18 19 19 20 21 21 22 23 22 18 13 11 10 13 18 23 23 23 22 14 10 4 8 18
18 18 19 21 22 22 18 20 20 16 18 22 24 23 25 23 23 23 22 22 20 22 21 22 24 23 24 27 25 21 19 17 23 23 23 22 28 29 31 32 29 28 25
18 19 19 19 22 22 19 19 17 17 18 21 22 21 21 24 27 26 23 23 22 19 18 18 18 19 21 21 22 25 23 25 29 26 23 23 25 27 31 29 26 26 26
18 19 20 21 22 24 25 24 19 18 20 20 21 22 26 26 26 29 28 24 21 18 17 17 17 19 20 20 20 22 23 23 26 26 28 31 32 33 32 31 31 30 28
18 19 19 19 20 21 24 24 18 14 16 18 17 18 19 23 29 33 29 30 30 23 21 21 19 17 20 21 19 20 21 23 24 25 26 29 29 29 29 29 27 25 24
16 17 19 21 21 23 24 23 19 18 16 15 15 16 16 17 18 22 28 31 30 31 28 24 24 24 21 19 20 19 18 17 18 25 26 24 23 21 20 21 22 22 21

GFSMW_925_spd_087.txt.gz
Wind_Speed
18 19 15 12 16 21 26 29 29 29 26 24 22 24 23 26 28 29 30 30 33 34 34 37 38 36 35 35 33 29 28 21 21 19 12 8 9 13 15 16 17 18 18
18 15 10 12 19 22 24 26 27 28 25 21 22 17 20 24 26 29 32 33 35 34 37 39 39 37 30 33 37 33 25 19 25 16 18 5 4 11 14 16 17 18 17
19 15 11 15 18 22 27 27 27 24 21 19 20 17 16 13 21 26 25 37 36 39 39 41 37 34 32 36 38 34 29 19 25 21 12 5 5 10 12 18 18 18 19
19 15 13 15 21 21 22 24 24 23 19 18 19 18 15 15 14 19 21 34 39 39 40 42 39 35 34 32 36 34 32 25 26 20 10 10 12 6 5 11 19 19 21
19 16 13 16 20 21 24 23 21 19 18 21 21 18 14 12 19 14 27 33 32 32 38 38 36 35 34 32 35 34 31 27 26 24 13 8 7 8 3 4 13 18 22
15 9 11 18 21 22 22 23 23 20 19 22 20 18 14 12 13 16 23 25 30 30 33 33 33 32 32 36 36 35 32 32 28 27 24 17 11 8 5 2 8 17 17
8 9 14 14 22 24 25 24 23 22 20 21 20 18 15 13 13 18 21 27 27 27 28 30 29 28 28 31 31 32 35 34 35 34 30 26 24 17 12 8 5 7 11
14 7 12 16 21 24 24 25 25 23 20 20 20 18 16 14 14 18 20 23 28 28 31 29 29 27 23 20 19 27 35 37 33 37 33 30 28 25 20 16 10 4 8
16 12 14 15 22 26 25 24 24 22 22 21 20 18 16 15 14 15 19 22 27 30 33 34 31 29 32 35 33 26 33 36 35 36 35 31 32 32 28 25 19 19 10
20 9 12 15 20 22 22 22 23 22 22 21 21 19 16 14 13 14 17 20 22 30 34 34 34 34 34 38 37 30 28 30 36 35 33 29 28 28 28 23 19 19 22
14 2 6 14 18 19 20 20 22 22 23 23 20 20 17 16 14 14 13 17 22 26 28 30 32 33 35 37 37 34 26 27 31 36 34 31 27 26 27 30 27 21 23
12 5 6 10 15 17 19 19 21 22 22 20 18 19 18 18 17 14 15 16 16 17 22 23 27 29 32 32 33 36 34 27 26 31 34 40 39 40 41 35 34 33 37
13 4 6 7 9 13 17 19 20 21 19 18 18 17 18 17 18 17 17 17 16 15 16 17 18 20 26 28 30 33 33 37 38 36 35 35 32 33 29 29 29 29 30
17 14 5 7 10 13 14 15 17 19 19 17 16 15 17 15 16 16 17 18 19 17 17 17 17 18 19 21 26 29 29 31 32 34 35 33 32 30 29 30 34 35 31
17 16 14 11 9 11 12 11 12 14 15 14 14 14 13 13 12 12 13 14 16 18 19 17 17 18 18 19 21 25 29 30 31 32 33 29 30 33 33 29 30 29 29
14 14 15 15 13 17 15 16 13 10 11 9 6 7 8 9 10 10 10 10 11 11 12 15 16 16 21 23 24 26 28 29 30 28 28 29 32 38 40 42 43 42 35
12 14 14 13 16 17 17 18 20 23 22 19 15 14 10 9 5 8 9 11 12 14 14 14 15 15 16 19 24 26 27 23 26 28 29 30 33 35 37 36 39 42 46
11 12 11 17 19 17 20 20 22 24 21 22 18 15 13 13 11 10 9 8 5 5 5 3 5 13 5 11 20 25 27 31 24 15 16 18 20 18 22 26 27 22 21
8 12 15 18 20 23 22 29 23 23 19 24 20 15 15 16 16 15 12 11 11 14 14 12 12 10 13 9 7 9 11 8 7 2 4 7 10 14 16 17 14 13 2
18 14 16 20 23 22 25 28 28 25 28 24 17 17 19 21 20 18 18 15 17 20 20 23 21 18 19 17 11 6 6 9 11 11 13 18 11 9 8 5 4 9 13
17 16 23 24 22 21 26 33 24 23 23 19 18 19 21 22 19 22 22 22 24 25 25 26 25 28 24 23 19 13 12 14 17 20 22 21 20 18 15 11 15 19 21
19 20 24 23 26 28 25 24 24 17 19 20 21 21 23 21 19 22 24 22 21 22 22 23 23 24 25 26 26 23 20 18 22 21 19 21 26 26 26 27 25 23 22
20 22 22 22 28 30 27 24 20 16 18 21 20 22 23 22 21 23 22 22 21 21 20 19 18 17 17 18 22 24 23 24 25 22 21 21 23 25 27 25 25 23 20
23 23 25 26 26 27 27 24 16 15 17 20 21 21 24 23 24 27 25 22 21 20 18 18 18 18 18 16 14 15 17 20 20 21 25 27 27 27 24 22 22 20 16
22 22 22 22 23 22 22 18 17 13 15 16 17 16 20 25 28 32 26 27 29 21 19 18 17 16 18 19 16 15 14 14 18 17 16 17 18 19 18 18 17 16 15
19 20 20 19 18 18 20 18 14 12 13 15 15 15 16 17 18 21 27 32 31 30 27 23 20 21 20 18 18 17 15 15 15 17 17 17 16 16 15 14 14 15 14

GFSMW_925_spd_093.txt.gz
Wind_Speed
20 22 23 24 24 22 20 22 26 27 28 26 26 25 24 22 23 24 26 28 29 32 32 30 25 27 33 33 34 32 31 27 23 21 20 12 10 14 16 17 17 18 18
17 17 22 25 26 23 21 23 26 28 29 26 26 24 21 20 21 21 25 27 30 31 32 32 28 31 33 36 36 32 28 28 22 23 19 7 4 8 14 18 18 17 17
15 16 17 22 26 23 23 24 26 28 28 28 25 22 17 13 17 20 22 26 28 29 33 32 33 37 34 36 38 36 31 26 25 28 20 9 5 14 15 14 19 18 18
13 15 17 17 25 25 23 23 24 27 27 30 28 26 18 15 17 18 19 24 27 29 31 34 37 35 36 36 41 36 34 29 27 27 24 20 16 11 6 14 17 18 19
10 13 14 16 25 27 23 21 23 27 25 31 27 24 23 20 16 19 18 20 25 31 34 35 38 36 35 36 38 36 34 32 30 27 25 20 14 24 13 10 18 21 21
9 10 12 18 22 23 21 20 22 26 26 28 27 23 20 16 16 16 16 19 24 31 29 38 38 37 36 34 40 40 37 29 28 27 24 21 15 13 13 7 16 18 20
11 8 9 9 15 16 17 18 22 25 26 27 26 21 18 18 15 15 14 13 21 23 29 35 39 37 36 38 36 35 32 29 28 27 23 17 15 15 13 12 7 11 17
15 11 8 5 7 11 15 16 23 25 25 24 21 18 15 14 14 12 12 13 21 25 31 37 38 38 39 38 37 34 30 27 27 25 23 22 19 17 15 15 12 3 6
18 16 13 3 8 14 13 16 20 24 23 21 19 17 15 13 11 9 12 16 18 22 26 32 37 39 40 43 36 27 26 25 25 24 24 24 20 18 18 11 12 10 7
18 20 16 2 5 16 15 13 17 20 20 19 17 16 15 12 9 10 15 17 18 22 25 25 26 31 35 41 39 29 26 22 20 20 22 21 19 22 19 15 15 13 10
16 16 16 15 4 16 14 15 21 19 18 17 16 15 15 13 11 10 13 19 22 26 25 26 27 28 30 32 31 28 26 24 22 29 25 25 24 22 19 19 16 13 17
14 15 17 14 13 11 11 13 17 19 16 15 16 16 15 15 12 10 13 20 25 28 29 30 28 28 28 27 26 26 28 28 27 26 22 25 23 24 25 18 22 19 16
16 16 16 14 9 6 7 10 8 14 15 14 15 16 15 15 12 12 13 20 23 26 28 28 29 28 29 30 29 29 28 27 27 26 26 25 23 21 19 21 24 25 25
14 14 14 15 16 14 9 10 8 12 14 16 15 15 15 16 14 13 15 16 19 23 25 26 25 26 28 28 29 29 28 27 27 26 27 25 25 27 25 24 28 28 28
14 14 14 14 16 19 22 7 11 11 13 11 13 14 13 13 12 12 11 12 16 17 18 19 22 23 25 26 28 29 31 31 25 27 25 28 27 26 25 24 25 25 25
13 13 15 15 14 19 20 21 15 8 14 13 10 13 11 11 10 11 12 10 9 8 9 14 16 19 17 20 24 24 24 26 22 23 26 26 28 33 33 33 34 30 27
13 13 13 13 17 18 18 18 17 15 19 17 14 15 15 17 15 11 13 11 12 10 8 5 12 13 9 14 21 24 15 17 18 16 13 11 13 18 23 23 28 33 31
13 13 12 16 18 17 18 18 15 19 17 17 16 14 14 15 14 15 16 16 18 17 15 12 9 8 4 7 13 15 10 4 3 3 4 7 9 10 14 12 11 3 3
13 15 16 16 21 22 19 17 18 22 24 20 18 17 16 17 16 18 16 14 17 19 18 15 13 11 10 5 2 10 12 10 10 8 4 2 2 5 4 6 8 9 12
20 21 20 20 26 26 22 24 24 24 24 21 19 23 24 25 25 23 23 20 22 24 23 24 22 20 17 13 7 10 16 18 17 15 15 16 9 4 3 7 12 14 12
20 22 23 21 26 24 21 29 26 27 24 23 20 25 27 32 30 28 29 28 26 28 29 31 28 27 25 23 18 14 18 20 21 21 21 21 18 18 15 15 13 18 15
19 22 21 25 24 24 27 27 28 26 23 27 22 27 25 30 30 25 31 32 22 25 21 23 25 29 29 26 25 24 21 20 24 22 24 23 25 28 29 28 23 22 19
17 19 21 20 28 29 27 25 22 22 29 27 23 26 27 38 32 27 24 31 15 23 21 21 20 20 20 25 27 24 22 23 25 24 22 20 21 24 26 23 21 21 19
19 18 19 22 23 26 28 26 23 20 28 23 26 29 30 30 29 32 31 31 24 24 21 19 19 19 21 19 16 15 17 19 22 22 24 23 23 22 21 20 20 19 17
17 17 18 20 20 21 25 26 22 17 21 19 22 20 22 25 33 37 31 30 34 27 21 22 22 16 19 19 15 13 15 15 15 16 16 16 16 17 16 16 16 14 13
18 19 21 22 23 25 25 25 26 23 20 20 21 17 16 16 24 25 29 32 30 29 27 24 19 21 20 18 17 16 15 14 13 15 15 15 15 14 13 13 13 14 14

GFSMW_925_spd_096.txt.gz
Wind_Speed
15 20 20 19 24 23 24 29 31 34 32 27 27 25 26 24 25 26 23 25 26 27 29 26 28 29 29 33 29 28 30 25 28 25 22 18 25 24 19 26 23 23 23
17 18 22 22 21 21 22 22 29 35 31 28 27 23 22 23 22 25 28 28 27 28 30 29 29 29 30 33 29 30 24 23 32 16 17 4 11 20 25 23 25 26 27
13 8 7 11 25 25 22 21 23 33 30 26 23 21 23 20 22 23 24 27 27 29 30 32 30 31 28 25 33 33 31 25 27 26 19 4 4 7 12 20 21 24 29
6 7 8 8 15 24 27 24 23 23 32 29 26 28 24 19 16 20 21 23 26 29 31 30 32 32 32 34 36 38 39 27 23 28 27 18 18 7 3 11 22 24 25
4 6 7 10 20 18 25 28 26 24 32 32 28 29 24 20 16 19 22 23 23 26 29 30 32 33 32 35 35 35 35 34 25 24 24 24 24 26 8 4 10 18 26
9 7 8 10 16 19 19 30 26 22 30 29 32 28 26 20 20 23 21 23 24 26 29 30 34 36 35 37 39 35 39 38 30 27 24 25 15 18 16 4 15 16 25
12 16 9 8 8 15 18 26 24 20 29 28 28 24 28 23 18 25 23 20 21 25 28 30 33 35 39 37 36 39 39 37 35 31 29 28 24 23 23 13 15 13 21
15 17 21 20 8 7 22 19 19 18 25 27 25 23 20 16 15 15 16 19 20 22 28 31 31 36 39 38 36 37 37 39 36 35 32 28 27 20 14 4 12 4 4
14 17 18 21 12 16 15 10 11 17 22 25 22 20 19 15 11 13 14 14 17 17 23 27 33 35 40 36 37 32 37 41 35 35 32 30 23 18 16 6 1 9 4
14 16 17 19 28 17 10 3 8 12 21 23 19 17 14 13 12 12 13 13 14 12 17 23 31 28 34 36 34 33 30 35 34 34 34 28 22 21 15 7 10 2 4
14 15 16 24 32 13 6 3 5 6 22 20 15 16 14 13 12 11 13 14 11 12 15 21 21 30 35 37 35 31 34 32 30 29 29 23 21 17 15 17 16 14 9
15 15 15 19 25 25 6 5 5 15 18 17 14 15 15 13 13 12 12 13 12 15 18 18 18 16 26 36 33 31 32 30 30 27 25 25 24 21 20 18 20 24 18
17 16 16 15 19 25 28 7 6 3 12 19 15 14 15 14 12 11 12 13 15 20 20 19 21 22 20 28 31 35 31 29 27 26 27 25 22 23 26 26 24 26 21
17 16 15 15 20 25 26 28 8 0 6 13 12 13 16 14 13 12 13 15 17 21 21 20 20 21 18 17 18 23 27 24 26 25 25 27 30 28 25 25 27 24 22
19 17 15 15 19 24 28 29 29 8 8 10 11 11 14 18 15 17 15 16 18 20 21 22 23 23 23 22 24 25 27 30 29 26 24 23 26 24 27 24 23 22 23
18 18 18 17 17 22 24 27 28 28 9 4 7 9 11 14 15 14 15 16 18 19 20 23 22 19 21 24 25 25 26 27 26 25 24 25 21 27 24 24 19 21 23
16 18 17 17 21 22 22 24 26 26 16 16 14 15 13 14 13 13 15 13 13 18 20 20 20 17 11 16 24 25 21 22 20 21 19 18 22 20 25 29 32 26 29
15 16 16 21 23 23 24 25 27 26 21 20 19 15 16 17 16 17 17 16 17 17 19 18 16 14 10 7 11 19 15 16 12 10 11 12 10 9 16 18 15 10 5
13 17 21 23 23 26 25 25 28 27 25 24 25 20 14 16 18 21 19 18 21 22 21 19 17 16 15 12 14 14 16 16 16 13 9 4 2 4 7 11 17 18 19
17 20 23 25 28 30 25 27 28 29 26 23 26 27 24 21 22 21 23 23 26 27 25 27 24 24 21 16 11 11 17 21 22 21 22 19 11 9 9 12 16 19 18
21 21 24 26 29 29 27 27 28 28 24 25 35 36 31 30 26 25 24 28 30 33 34 35 33 33 31 28 22 20 23 27 29 28 29 29 24 20 17 17 17 21 20
22 24 23 25 28 31 25 27 29 27 23 31 36 38 39 35 28 27 25 23 26 26 25 29 29 36 33 31 32 31 29 27 34 29 30 31 34 32 32 30 25 24 21
20 22 22 22 28 30 29 25 24 24 27 33 31 35 38 34 33 35 30 25 21 26 19 22 25 25 22 33 33 34 32 32 33 31 30 29 30 28 27 25 23 22 20
19 20 22 24 25 29 31 29 25 25 25 29 31 32 33 34 33 34 35 26 24 31 18 21 22 23 26 26 19 24 25 28 30 29 28 28 27 25 23 23 22 20 17
16 19 20 21 24 26 28 32 26 26 27 25 23 26 26 29 28 36 31 27 35 27 22 22 22 25 21 21 20 19 23 26 25 25 24 23 21 19 19 21 20 19 17
19 20 21 22 22 24 27 27 25 26 23 23 23 22 17 22 25 24 28 31 31 31 29 25 25 27 24 21 20 21 23 22 21 25 22 20 20 19 17 17 18 18 18

GFSMW_925_spd_099.txt.gz
Wind_Speed
8 11 13 27 34 40 40 31 40 40 38 36 34 32 34 30 27 30 33 28 28 30 31 31 32 33 34 31 30 26 25 21 29 27 15 24 20 33 35 30 32 28 26
10 9 17 20 21 31 33 29 44 44 41 38 34 27 29 29 30 24 30 34 32 30 30 29 31 32 32 30 29 28 20 18 27 21 15 4 11 21 33 36 30 27 27
13 9 12 19 24 25 24 28 39 42 37 33 29 21 24 20 25 31 28 32 33 30 30 29 31 32 31 31 31 33 28 17 27 21 9 4 5 14 23 30 28 29 30
8 7 7 2 5 16 27 30 40 40 38 38 32 33 28 21 24 23 29 33 30 30 31 32 32 33 34 33 32 36 34 26 27 26 25 14 21 9 5 19 30 31 32
4 11 15 10 13 13 14 29 43 41 39 39 37 34 25 23 23 24 26 31 31 29 30 31 32 31 34 33 37 33 33 36 30 29 26 17 25 21 12 6 9 27 36
13 15 16 26 27 31 15 30 36 35 41 39 37 35 30 26 23 26 28 28 28 28 30 31 33 35 34 38 38 34 36 36 34 30 27 20 22 16 15 5 10 18 27
17 17 18 17 25 30 19 30 31 33 37 37 35 31 30 30 29 31 28 26 26 26 29 30 33 35 34 36 38 37 36 38 36 37 31 23 23 30 24 19 15 8 10
16 17 17 17 23 28 6 26 25 27 31 32 32 29 30 31 29 31 31 29 26 24 24 33 33 35 35 38 39 38 38 39 39 39 34 27 25 32 26 23 17 3 7
16 19 18 21 29 27 25 22 15 15 26 29 27 26 27 27 24 27 28 27 25 21 21 27 33 32 36 38 40 37 37 38 40 39 37 29 34 27 33 30 28 17 7
20 19 18 22 30 32 31 26 24 16 14 26 26 23 25 22 19 20 21 18 15 15 20 24 30 31 35 37 37 31 35 35 36 38 36 34 33 32 25 23 19 25 14
18 17 17 23 25 28 30 31 24 21 6 25 22 22 19 18 16 15 12 11 13 14 17 20 25 28 33 35 35 28 32 35 36 36 37 35 35 28 25 18 13 14 11
18 17 17 24 26 29 31 29 31 18 9 18 24 19 17 13 11 8 7 9 11 13 13 15 18 21 24 32 32 32 32 34 31 33 33 32 35 31 23 19 15 11 11
19 18 18 18 24 27 28 28 29 31 7 14 17 18 17 14 13 13 8 10 12 13 11 15 15 17 22 31 31 35 32 34 31 31 34 34 34 32 22 19 16 17 11
18 17 17 17 24 27 28 29 30 30 26 10 14 15 14 13 13 11 10 13 14 13 14 13 12 12 12 24 27 30 34 29 34 33 33 35 33 26 21 20 25 23 24
19 17 17 16 23 26 27 27 27 29 28 6 10 13 14 13 13 12 12 14 15 14 15 14 12 11 12 15 24 28 33 33 31 30 26 24 21 20 23 23 26 27 26
18 18 18 16 21 25 25 24 25 29 28 25 9 6 10 13 11 13 12 15 14 14 15 15 14 14 12 13 15 14 18 23 20 20 21 22 21 22 17 26 26 27 27
17 17 17 17 22 24 25 23 22 28 30 30 26 13 15 14 15 17 17 16 15 14 15 15 15 12 10 16 18 18 17 17 18 20 25 23 22 21 22 23 23 20 24
15 15 17 21 25 26 27 23 23 29 32 30 29 25 16 16 15 19 19 19 19 20 20 17 14 11 5 7 16 21 18 20 16 15 16 20 19 20 20 20 18 13 8
16 17 21 22 24 28 28 25 26 27 32 32 29 28 24 21 21 22 21 18 20 22 22 19 17 17 15 11 17 23 22 21 18 12 10 11 11 10 14 19 22 22 22
21 20 21 23 29 30 28 29 29 30 29 27 31 30 29 25 30 28 27 24 26 27 26 27 25 22 19 13 14 22 27 28 26 22 21 14 15 15 16 21 24 27 23
22 22 24 26 28 26 27 29 30 32 28 29 27 36 34 26 27 32 32 32 31 31 30 32 33 33 28 21 18 20 24 28 29 28 28 25 19 20 20 21 24 28 24
21 24 22 24 27 31 26 28 30 27 31 34 34 37 35 29 27 32 32 31 28 28 26 26 30 34 34 31 28 28 30 29 32 28 31 33 36 35 34 33 30 29 26
18 20 22 24 28 32 30 28 27 30 31 33 33 36 37 32 33 30 27 31 28 26 26 24 24 23 29 34 32 33 34 37 37 33 31 32 33 34 30 28 24 25 27
20 21 22 25 28 33 31 31 28 28 24 29 31 30 32 32 36 33 33 28 23 22 25 21 21 25 25 26 22 21 30 29 34 31 30 30 30 31 29 27 25 24 23
17 20 21 23 26 28 32 32 29 26 26 26 22 27 27 29 30 34 32 29 31 28 23 20 22 21 20 24 24 21 24 25 26 25 28 25 23 27 26 26 24 21 20
19 20 21 21 23 25 27 28 27 26 24 22 22 23 19 24 23 23 28 31 30 30 28 25 27 26 23 20 23 22 20 19 21 24 24 23 22 21 20 21 22 20 19